Belleville, IL

10:39 AM CST on November 18, 2017 (GMT -0600)
Scott Air Force Base-Midamerica

Weather History for KBLV - November, 2013

Change the Weather History Date:

Friday, November 15, 2013

  Actual Average Record
Temperature  
Mean Temperature 48 °F -  
Max Temperature 54 °F 55 °F 82 °F (1955)
Min Temperature 41 °F 36 °F 18 °F (1982)
Degree Days  
Heating Degree Days 18    
Moisture  
Dew Point 35 °F    
Average Humidity 62    
Maximum Humidity 89    
Minimum Humidity 42    
Precipitation  
Precipitation 0.00 in - - ()
Sea Level Pressure  
Sea Level Pressure 30.03 in    
Wind  
Wind Speed 8 mph (SSE)    
Max Wind Speed 13 mph    
Max Gust Speed -    
Visibility 10 miles    
Events Rain    
Averages and records for this station are not official NWS values.
T = Trace of Precipitation, MM = Missing Value Source: NWS Daily Summary

Daily Weather History Graph

Daily Weather History Graph

Search for Another Location

Airport or City:

Trip Planner

Search our weather history database for the weather conditions in past years. The results will help you decide how hot, cold, wet, or windy it might be!

Date:

Astronomy

Nov. 15, 2013 Rise Set
Actual Time 6:41 AM CST 4:46 PM CST
Civil Twilight 6:13 AM CST 5:14 PM CST
Nautical Twilight 5:41 AM CST 5:46 PM CST
Astronomical Twilight 5:09 AM CST 6:17 PM CST
Moon 3:42 PM CST (11/15) 4:39 AM CST (11/15)
Length of Visible Light 11h 01m
Length of Day
10h 04m
Waxing Gibbous, 96% of the Moon is Illuminated
Nov 15
Waxing Gibbous
Nov 17
Full
Nov 25
Last Quarter
Dec 2
New
Dec 9
First Quarter

Hourly Weather History & Observations

Time (CST) Temp. Windchill Dew Point Humidity Pressure Visibility Wind Dir Wind Speed Gust Speed Precip Events Conditions
12:58 AM 45.0 °F 40.6 °F 26.1 °F 48% 30.07 in 10.0 mi South 8.1 mph - N/A   Mostly Cloudy
1:58 AM 44.8 °F 40.4 °F 26.4 °F 49% 30.07 in 10.0 mi South 8.1 mph - N/A   Scattered Clouds
2:58 AM 43.5 °F 40.9 °F 26.2 °F 51% 30.07 in 10.0 mi South 4.6 mph - N/A   Clear
3:58 AM 41.7 °F 38.0 °F 28.4 °F 59% 30.07 in 10.0 mi SE 5.8 mph - N/A   Clear
4:58 AM 41.7 °F 38.8 °F 28.8 °F 60% 30.08 in 10.0 mi SSE 4.6 mph - N/A   Clear
5:58 AM 41.9 °F 39.0 °F 29.3 °F 61% 30.09 in 10.0 mi SSE 4.6 mph - N/A   Overcast
6:58 AM 42.6 °F 39.9 °F 29.8 °F 61% 30.09 in 10.0 mi South 4.6 mph - N/A   Overcast
7:58 AM 46.2 °F 43.3 °F 30.0 °F 53% 30.09 in 10.0 mi South 5.8 mph - N/A   Scattered Clouds
8:58 AM 50.4 °F - 30.9 °F 47% 30.09 in 10.0 mi South 8.1 mph - N/A   Partly Cloudy
9:58 AM 51.3 °F - 30.9 °F 46% 30.10 in 10.0 mi South 9.2 mph - N/A   Mostly Cloudy
10:58 AM 52.5 °F - 31.3 °F 44% 30.09 in 10.0 mi South 5.8 mph - N/A   Mostly Cloudy
11:58 AM 52.7 °F - 30.0 °F 42% 30.06 in 10.0 mi South 6.9 mph - N/A   Scattered Clouds
12:58 PM 54.1 °F - 31.3 °F 42% 30.01 in 10.0 mi South 6.9 mph - N/A   Partly Cloudy
1:11 PM 53.6 °F - 32.0 °F 44% 29.99 in 10.0 mi SSE 10.4 mph - N/A Rain Light Rain
1:36 PM 51.8 °F - 37.4 °F 58% 29.99 in 10.0 mi SSE 8.1 mph - N/A Rain Light Rain
1:41 PM 51.8 °F - 39.2 °F 62% 29.99 in 10.0 mi SSE 11.5 mph - N/A Rain Light Rain
1:46 PM 51.8 °F - 37.4 °F 58% 29.99 in 10.0 mi SSE 9.2 mph - N/A   Scattered Clouds
1:58 PM 51.8 °F - 37.6 °F 58% 30.01 in 10.0 mi SSE 11.5 mph - 0.00 in   Partly Cloudy
2:58 PM 52.2 °F - 36.3 °F 55% 30.00 in 10.0 mi SE 8.1 mph - N/A   Partly Cloudy
3:58 PM 52.5 °F - 36.7 °F 55% 30.00 in 10.0 mi SSE 12.7 mph - N/A   Overcast
4:58 PM 51.1 °F - 38.1 °F 61% 30.00 in 10.0 mi SSE 11.5 mph - N/A   Overcast
5:58 PM 49.6 °F - 39.0 °F 67% 30.00 in 10.0 mi SE 10.4 mph - N/A   Overcast
6:58 PM 45.1 °F 40.8 °F 38.8 °F 79% 30.01 in 10.0 mi SE 8.1 mph - N/A   Clear
7:58 PM 45.9 °F 41.7 °F 40.1 °F 80% 30.01 in 10.0 mi SSE 8.1 mph - N/A   Clear
8:43 PM 44.6 °F 41.4 °F 41.0 °F 87% 29.98 in 10.0 mi SE 5.8 mph - N/A   Mostly Cloudy
8:58 PM 45.9 °F 41.7 °F 41.2 °F 84% 29.99 in 10.0 mi SE 8.1 mph - N/A   Overcast
9:58 PM 48.2 °F - 43.7 °F 84% 29.99 in 10.0 mi SSE 8.1 mph - N/A   Overcast
10:58 PM 49.6 °F - 44.8 °F 83% 29.99 in 10.0 mi SSE 10.4 mph - N/A   Overcast
11:43 PM 48.2 °F - 44.6 °F 87% 29.95 in 10.0 mi SSE 11.5 mph - N/A   Scattered Clouds
11:58 PM 48.4 °F - 45.1 °F 89% 29.96 in 10.0 mi SSE 9.2 mph - N/A   Clear